Regional Weather Roundup
Issued by NWS

Home | Current Version | Previous Version | Graphics & Text | Print | Product List | Glossary On
Versions: 1 2 3 4 5 6 7 8 9 10 11 12 13 14 15 16 17 18 19 20 21 22 23 24 25 26 27 28 29 30 31 32 33 34 35 36 37 38 39 40 41 42 43 44 45 46 47 48 49 50
000
ASUS43 KMPX 261710
RWRMN
WEATHER ROUNDUP FOR MINNESOTA
NATIONAL WEATHER SERVICE TWIN CITIES/CHANHASSEN MN
1100 AM CST FRI DEC 26 2014


NOTE: "FAIR" INDICATES FEW OR NO CLOUDS BELOW 12,000 FEET WITH NO
SIGNIFICANT WEATHER AND/OR OBSTRUCTIONS TO VISIBILITY. N/A MEANS
CURRENT SKY AND/OR WEATHER CONDITIONS ARE NOT AVAILABLE.

MNZ060>063-068>070-261800-
   Twin Cities Metro

CITY           SKY/WX    TMP DP  RH WIND       PRES   REMARKS
TWIN CITIES    CLOUDY    31  27  85 N13       30.03R WCI  21
ST PAUL        CLOUDY    32  28  85 N12       30.03S WCI  23
CRYSTAL        CLOUDY    31  27  85 N10       30.02S WCI  22
BLAINE         CLOUDY    30  30 100 N13G18    30.02S WCI  20
LAKEVILLE      CLOUDY    30  28  93 N8        30.01R WCI  23
EDEN PRAIRIE   CLOUDY    31  26  82 N14       30.01R WCI  21
SOUTH ST PAUL  CLOUDY    32  29  88 N10G17    30.02R WCI  24
LAKE ELMO      CLOUDY    32  30  93 N9        30.02R WCI  24
$$
MNZ001>005-007-008-013>017-022>024-027-028-261800-
   Northwest Minnesota

CITY           SKY/WX    TMP DP  RH WIND       PRES   REMARKS
BEMIDJI        PTSUNNY   23  17  78 N8        30.10S WCI  13
HALLOCK        FLURRIES  16  12  86 NW16      30.19R WCI   0
ROSEAU         LGT SNOW  21  18  86 W6        30.15S WCI  14
WARROAD        FLURRIES  19  16  86 NW8       30.15S WCI   9
THIEF RVR FALL CLOUDY    21  18  86 N12       30.15S WCI   9
CROOKSTON      LGT SNOW  23  19  86 N9        30.19S WCI  13
FOSSTON        FLURRIES  21  18  86 NW7       30.14R WCI  13
DETROIT LAKES  CLOUDY    25  21  86 N7        30.12S WCI  17
MOORHEAD       CLOUDY    25  21  86 N15       30.17S WCI  12
PARK RAPIDS    CLOUDY    24  18  77 N10       30.08F WCI  14
MAHNOMEN       CLOUDY    23  18  80 N8        30.12F WCI  14
$$
MNZ006-009>011-018-025>026-261800-
   North Central Minnesota

CITY           SKY/WX    TMP DP  RH WIND       PRES   REMARKS
BAUDETTE       CLOUDY    21  15  78 NW13      30.12R WCI   9
FLAG ISLAND    LGT SNOW  19  16  86 NW9       30.13S WCI   9
INTL FALLS     CLOUDY    24  19  81 NW8       30.09R WCI  15
WASKISH        CLOUDY    21  18  86 NW3       30.12S
BIG FORK       CLOUDY    25  19  80 NW5       30.09S WCI  19
LONGVILLE      CLOUDY    25  19  80 N8        30.09S WCI  16
GRAND RAPIDS   CLOUDY    25  21  86 N12       30.06S WCI  14
CRANE LAKE     CLOUDY    25  21  86 NW5       30.09S WCI  19
ORR            CLOUDY    23  19  86 NW8       30.05S WCI  14
COOK           CLOUDY    25  23  93 NW7       30.06S WCI  17
WALKER         CLOUDY    23  17  77 N7        30.09F WCI  15
$$
MNZ012-019>021-037-261800-
   Northeast Minnesota

CITY           SKY/WX    TMP DP  RH WIND       PRES   REMARKS
DULUTH         LGT SNOW  28  22  78 N7        30.02S WCI  21
ELY            CLOUDY    27  23  86 NW3       30.03S
HIBBING        CLOUDY    27  22  81 NW10      30.05R WCI  17
EVELETH        PTSUNNY   28  25  86 NW7       30.05S WCI  21
DULUTH HARBOR  FLURRIES  30  27  86 N7        30.07S WCI  23
TWO HARBORS    CLOUDY    32  25  74 N3        30.02S
SILVER BAY     CLOUDY    30  23  74 N3        30.01F
GRAND MARAIS     N/A     32  23  69 N7        30.03F WCI  26
G MARAIS ARPRT CLOUDY    25  19  80 NW3       29.99S
$$
MNZ029>031-032-039>041-046>048-054>057-064-261800-
   West Central Minnesota

CITY           SKY/WX    TMP DP  RH WIND       PRES   REMARKS
FERGUS FALLS   CLOUDY    25  19  80 N12G17    30.15S WCI  14
WHEATON        CLOUDY    21  19  93 N14G21    30.15S WCI   8
MORRIS         PTSUNNY   27  25  93 N15       30.10R WCI  15
ALEXANDRIA     CLOUDY    26  20  77 N12       30.07F WCI  16
ELBOW LAKE     CLOUDY    24  22  93 N16       30.10S WCI  11
WADENA         CLOUDY    25  19  80 N12       30.08S WCI  14
GLENWOOD       CLOUDY    27  23  86 N12       30.07S WCI  16
APPLETON       CLOUDY    28  25  86 N16       30.11R WCI  17
BENSON         PTSUNNY   28  21  74 NE14      30.09R WCI  17
ORTONVILLE     CLOUDY    25  21  86 N15       30.12R WCI  12
MADISON          N/A     28  27  93 N15       30.11R WCI  17
WILLMAR        FAIR      28  25  86 N12       30.07F WCI  18
$$
MNZ033>034-036-042>043-049>051-058-059-261800-
   Central Minnesota

CITY           SKY/WX    TMP DP  RH WIND       PRES   REMARKS
ST CLOUD       LGT SNOW  32  24  72 N9        30.05F WCI  24
SAUK CENTRE    CLOUDY    27  22  82 N12       30.07S WCI  16
PAYNESVILLE    CLOUDY    25  23  91 NW8       30.06F WCI  16
AITKIN         CLOUDY    30  25  80 NW9       30.05S WCI  22
PINE RIVER     MOSUNNY   27  19  74 N10       30.11S WCI  17
BRAINERD       CLOUDY    27  21  78 N12       30.07S WCI  17
STAPLES        PTSUNNY   25  19  80 N12       30.08R WCI  14
LONG PRAIRIE   CLOUDY    27  21  80 N9        30.07S WCI  17
LITTLE FALLS   CLOUDY    28  23  80 N8        30.07R WCI  20
LITCHFIELD     CLOUDY    28  28 100 N10       30.05F WCI  19
BUFFALO        CLOUDY    30  26  83 N7        30.05R WCI  23
MAPLE LAKE     CLOUDY    31  28  89 N12       30.05S WCI  22
$$
MNZ037-044-045-052-053-261800-
   East Central Minnesota

CITY           SKY/WX    TMP DP  RH WIND       PRES   REMARKS
PRINCETON      CLOUDY    30  27  86 N7        30.05S WCI  23
MORA           CLOUDY    30  25  80 VRB5      30.07S WCI  25
CAMBRIDGE      PTSUNNY   30  23  74 N6        30.02F WCI  24
RUSH CITY      CLOUDY    30  26  88 N8        30.04S WCI  22
MOOSE LAKE     LGT SNOW  30  27  86 N5        30.03F WCI  25
HINCKLEY       CLOUDY    30  27  86 N8        30.04F WCI  23
CLOQUET        LGT SNOW  28  25  86 NW7       30.04R WCI  21
MCGREGOR       CLOUDY    30  25  80 N8        30.05F WCI  23
$$
MNZ071>073-080-081-089-090-097-098-261800-
   Southwest Minnesota

CITY           SKY/WX    TMP DP  RH WIND       PRES   REMARKS
MONTEVIDEO     CLOUDY    27  27 100 N12       30.10R WCI  16
GRANITE FALLS  CLOUDY    28  25  89 NW12      30.10R WCI  18
CANBY          CLOUDY    26  24  91 N13       30.12R WCI  15
MARSHALL       CLOUDY    27  21  80 N16       30.09R WCI  14
REDWOOD FALLS  CLOUDY    30  25  81 N9        30.06R WCI  22
OLIVIA         CLOUDY    28  27  93 N9        30.06R WCI  20
PIPESTONE      CLOUDY    25  23  93 NE13      30.06R WCI  13
WINDOM         CLOUDY    28  27  93 N12       30.04R WCI  18
WORTHINGTON    CLOUDY    27 -20  12 N17       30.04R WCI  14
JACKSON        CLOUDY    30  28  93 N10G20    30.03R WCI  21
TRACY          CLOUDY    28  27  94 N13       30.07R WCI  17
SLAYTON        CLOUDY    26  25  96 N14       30.04F WCI  14
$$
MNZ065>067-074>077-082>085-091>093-261800-
   South Central Minnesota

CITY           SKY/WX    TMP DP  RH WIND       PRES   REMARKS
MANKATO        CLOUDY    30  27  86 N15       30.01R WCI  19
NEW ULM        CLOUDY    30  27  86 N7        30.04R WCI  23
ST JAMES       CLOUDY    32  28  86 N12       30.05R WCI  23
FAIRMONT       CLOUDY    30  27  86 N16       30.01S WCI  19
GLENCOE        CLOUDY    31  29  90 N10G16    30.03S WCI  22
FARIBAULT      CLOUDY    32  30  93 N9        30.00R FOG     WCI  24
OWATONNA       CLOUDY    34  30  86 N10G16    29.98S FOG     WCI  26
WASECA         CLOUDY    32  30  93 VRB14     30.01R FOG     WCI  22
ALBERT LEA     CLOUDY    34  34 100 N12       29.98R FOG     WCI  25
$$
MNZ078>079-086>088-094>096-261800-
   Southeast Minnesota

CITY           SKY/WX    TMP DP  RH WIND       PRES   REMARKS
ROCHESTER      CLOUDY    32  30  92 N10       29.95S FOG     WCI  24
RED WING       CLOUDY    34  30  86 N5        29.99R WCI  30
STANTON        CLOUDY    33  30  90 N10       29.98S FOG     WCI  25
DODGE CENTER   CLOUDY    34  32  93 N13       29.96R FOG     WCI  25
WINONA         MOSUNNY   36  34  93 N3        29.96F
AUSTIN         CLOUDY    32  30  93 N10       29.96R FOG     WCI  24
PRESTON        MOSUNNY   32  30  90 N6        29.94R WCI  27
$$
ABBREVIATIONS USED IN REMARKS
   TC - TEMPERATURES IN CELSIUS
  WCI - WIND CHILL INDEX
   HX - HEAT INDEX
  VSB - VISIBILITY
$$


USA.gov is the U.S. government's official web portal to all federal, state and local government web resources and services.